Home   Weather   Angels Camp   Past weeks

Flag for USA Past Weather in Angels Camp, California, USA — Yesterday and Last 2 Weeks

Now
66 °F

Clear.


Feels Like: 66 °F
Forecast: 54 / 93 °F
Wind: 7 mph from North

Location: Modesto City-County-Sham Field

Current Time: Aug 30, 2016 at 8:05:35 AM

Latest Report: Aug 30, 2016 at 6:53 AM


Visibility: 10 mi

Pressure: 29.95 "Hg

Humidity: 61%

Dew Point: 52 °F

Location of Angels CampLocation

Past Weather in Angels Camp — Graph

°F

Angels Camp Temperature Yesterday

Maximum temperature yesterday: 90 °F (at 4:53 PM)
Minimum temperature yesterday: 60 °F (at 5:53 AM)
Average temperature yesterday: 74 °F

High & Low Weather Summary for the Past Weeks

 TemperatureHumidityPressure
High101 °F (Aug 17, 3:53 PM)81% (Aug 28, 6:53 AM)30.06 "Hg (Aug 28, 6:53 AM)
Low59 °F (Aug 28, 6:53 AM)15% (Aug 15, 4:53 PM)29.70 "Hg (Aug 17, 6:53 PM)
Average78 °F44%29.88 "Hg
* Reported Aug 15 6:53 AM — Aug 30 6:53 AM, Angels Camp, Weather by CustomWeather, © 2016

Note: Actual official high and low records may vary slightly from our data, if they occured in-between our weather recording intervals... More about our weather records

Advertising

Angels Camp Weather History for the Previous 24 Hours

Scroll right to see more
 ConditionsComfort  
Time TempWeatherWind HumidityBarometerVisibility
6:53 AM
Tue, Aug 30
66 °FClear.7 mph61%29.95 "Hg10 mi
5:53 AM65 °FClear.9 mph66%29.94 "Hg10 mi
4:53 AM66 °FClear.6 mph61%29.93 "Hg10 mi
3:53 AM67 °FClear.7 mph57%29.94 "Hg10 mi
2:53 AM67 °FClear.7 mph59%29.94 "Hg10 mi
1:53 AM67 °FClear.8 mph59%29.95 "Hg10 mi
12:53 AM68 °FClear.9 mph61%29.95 "Hg10 mi
11:53 PM
Mon, Aug 29
69 °FClear.7 mph59%29.95 "Hg10 mi
10:53 PM70 °FClear.7 mph57%29.94 "Hg10 mi
9:53 PM73 °FClear.8 mph50%29.94 "Hg10 mi
8:53 PM76 °FClear.14 mph45%29.93 "Hg10 mi
7:53 PM82 °FSunny.10 mph37%29.91 "Hg10 mi
6:53 PM86 °FSunny.15 mph32%29.91 "Hg10 mi
5:53 PM88 °FSunny.15 mph29%29.92 "Hg10 mi
4:53 PM90 °FSunny.12 mph28%29.92 "Hg10 mi
3:53 PM89 °FSunny.12 mph27%29.94 "Hg10 mi
2:53 PM88 °FSunny.12 mph30%29.96 "Hg9 mi
1:53 PM85 °FSunny.8 mph35%29.99 "Hg10 mi
12:53 PM81 °FSunny.8 mph39%30.01 "Hg10 mi
11:53 AM79 °FSunny.N/A41%30.03 "Hg10 mi
10:53 AM74 °FSunny.6 mph50%30.05 "Hg10 mi
9:53 AM70 °FSunny.9 mph55%30.05 "Hg10 mi
8:53 AM65 °FSunny.12 mph66%30.05 "Hg10 mi
Weather by CustomWeather, © 2016

See weather overviewHow to use our weather pages